Location: Lamécourt
(49.4301°N, 2.4659°E)
Time: 05:35:11
(UTC+00:00)

Daily predictions for brighter satellites

Satellite Brightness Start Highest point End
(mag) Time Altitude Azimuth Time Altitude Azimuth Time Altitude Azimuth
SL-16 R/B 4.0 00:59:04 33° NNE 00:59:04 33° NNE 01:02:43 10° N
SL-16 R/B 4.3 01:06:44 22° N 01:06:44 22° N 01:08:59 10° NNE
ATLAS 5 CENTAUR R/B 4.4 01:40:35 15° NNE 01:40:35 15° NNE 01:41:30 10° NNE
ADEOS II 3.8 01:33:48 10° NNE 01:36:36 29° NE 01:36:36 29° NE
Cosmos 1697 Rocket 4.2 02:08:45 10° NNW 02:13:54 34° NE 02:19:02 10° ESE
Cosmos 1821 Rocket 4.3 02:17:01 63° N 02:17:01 63° N 02:22:15 10° N
ALOS 4.4 02:13:36 10° NE 02:17:10 21° E 02:17:49 20° ESE
Cosmos 2123 Rocket 4.2 02:18:12 10° N 02:24:26 68° ENE 02:24:57 65° ESE
CZ-2D R/B 3.4 02:23:20 10° N 02:26:25 31° NNW 02:26:25 31° NNW
Resurs 1-4 Rocket 3.5 02:24:45 10° N 02:27:37 29° NNW 02:27:37 29° NNW
Cosmos 1934 Rocket 4.2 02:35:19 60° SE 02:36:13 68° E 02:42:30 10° NNE
SL-16 R/B 4.1 02:44:11 21° NW 02:44:11 21° NW 02:46:17 10° NNW
Cosmos 1932 4.4 02:46:39 70° NW 02:46:42 70° NW 02:53:10 10° NE
SL-16 R/B 4.4 02:48:36 12° NW 02:49:30 12° NNW 02:51:50 10° N
IDEFIX/ARIANE 42P 3.4 02:45:58 10° N 02:49:44 41° NNW 02:49:44 41° NNW
Cosmos 1980 Rocket 3.7 02:48:40 10° NNW 02:53:48 35° NE 02:58:55 10° ESE
USA 305 4.3 02:57:54 31° ESE 02:57:54 31° ESE 03:00:41 10° ENE
MSX 4.0 02:52:28 10° N 02:57:46 59° NW 02:57:46 59° NW
BREEZE-M DEB (TANK) 4.4 03:08:22 32° S 03:08:22 32° S 03:15:34 10° SE
CBERS-1 4.3 03:02:12 10° NNE 03:07:19 66° ESE 03:08:37 47° SSE
X-37B 3.7 03:10:50 11° ESE 03:10:50 11° ESE 03:10:57 10° ESE
IRS-1D 3.4 03:04:38 10° NNE 03:09:59 76° WNW 03:10:11 75° W
Cosmos 1190 Rocket 4.0 03:05:57 10° NNW 03:11:11 76° ENE 03:16:23 10° SSE
BREEZE-M DEB (TANK) 3.9 03:13:25 30° E 03:13:25 30° E 03:14:40 10° E
Cosmos 1633 Rocket 3.9 03:09:28 10° N 03:13:41 48° ENE 03:17:53 10° SSE
ATLAS CENTAUR R/B 3.4 03:12:27 22° SSE 03:14:24 29° ESE 03:18:35 10° ENE
PAYLOAD A 4.4 03:12:37 10° NNE 03:17:20 56° E 03:19:42 29° SSE
ADEOS II 3.2 03:13:48 10° N 03:17:31 30° NW 03:17:31 30° NW
Cosmos 407 Rocket 3.7 03:15:50 10° NNW 03:27:30 - S 03:20:08 53° WNW
Atlas Centaur 2 4.4 03:21:38 18° S 03:22:08 18° S 03:27:06 10° SE
ATLAS 5 CENTAUR R/B 3.8 03:22:01 13° NNW 03:23:34 15° N 03:26:23 10° NNE
Cosmos 1666 Rocket 3.6 03:21:48 10° N 03:26:18 78° E 03:30:04 14° SSE
Meteor 1-14 Rocket 4.3 03:22:49 10° NNW 03:28:39 58° W 03:30:18 43° SSW
Cosmos 1515 4.4 03:29:05 38° SE 03:30:06 51° E 03:33:45 10° NNE
Cosmos 1328 Rocket 4.4 03:28:13 18° SSE 03:31:12 50° E 03:35:29 10° NNE
USA 307 3.2 03:32:44 50° SSE 03:33:05 52° SE 03:37:09 10° ENE
CZ-2C R/B 2.4 03:30:04 10° NNE 03:35:09 83° ESE 03:37:31 31° S
Cosmos 1833 Rocket 2.7 03:32:50 36° SSW 03:35:16 81° ESE 03:40:58 10° NNE
Cosmos 2360 4.1 03:32:09 10° NNW 03:37:50 70° WSW 03:43:28 10° SSE
FENGYUN 3A 3.6 03:34:31 10° N 03:39:52 65° WNW 03:41:44 40° SW
Cosmos 1151 Rocket 2.8 03:39:15 56° SSW 03:40:07 81° W 03:44:25 10° N
Meteor 1-11 Rocket 3.8 03:36:57 10° NNW 03:42:58 88° ENE 03:48:56 10° S
USA 306 2.8 03:44:56 57° SSW 03:45:38 72° SSE 03:49:45 10° ENE
ARIANE 5 R/B 2.8 03:44:17 10° NNE 03:49:19 67° ESE 03:54:17 10° S
Cosmos 2082 Rocket 3.1 03:46:55 10° S 03:52:15 47° ESE 03:57:37 10° NE
Cosmos 2098 Rocket 4.5 03:49:47 10° NNW 03:50:20 14° NNW 03:50:20 14° NNW
Cosmos 1153 Rocket 4.4 03:46:51 10° S 03:53:00 86° W 03:59:16 10° N
Lacrosse 4 Rocket 3.7 03:49:26 10° NNW 03:53:03 25° NE 03:56:41 10° E
RUBIN 8/PSLV 4.5 03:50:02 10° N 03:54:21 68° WNW 03:56:07 35° SW
Cosmos 2100 Rocket 4.4 03:48:37 10° S 03:54:40 65° E 04:00:46 10° NNE
ALOS 2.4 03:50:17 10° N 03:54:51 53° WNW 03:56:16 38° WSW
Cosmos 1470 Rocket 3.6 03:53:11 10° N 03:57:32 81° E 04:01:53 10° SSE
Cosmos 1697 Rocket 2.8 03:52:38 10° NW 03:58:05 50° WSW 04:03:31 10° S
COSMOS 2406 3.5 03:55:00 13° SSW 04:00:02 68° ESE 04:05:41 10° NNE
METEOR-M 4.0 03:54:48 10° NNE 04:00:12 84° WNW 04:05:23 11° SSW
Helios 1B rocket 2.3 03:56:55 10° N 04:00:58 72° WNW 04:03:02 28° SSW
Cosmos 676 Rocket 3.9 03:56:13 10° NNW 04:01:25 70° WSW 04:06:37 10° SSE
Cosmos 1356 3.4 04:02:57 49° WNW 04:02:57 49° WNW 04:06:01 10° N
IRS-P3 4.1 03:59:29 10° NNE 04:04:53 89° WNW 04:10:13 10° SSW
CZ-2D R/B 3.5 04:01:52 10° NNE 04:05:50 72° ESE 04:09:48 10° S
ERBS 2.5 04:06:51 40° NW 04:06:59 41° NNW 04:09:45 10° NE
Cosmos 1743 2.6 04:04:09 10° NNW 04:07:53 59° W 04:11:37 10° S
USA 308 2.8 04:06:19 36° SW 04:07:57 82° SSE 04:12:07 10° ENE
CZ-2C R/B 2.5 04:02:53 10° S 04:08:04 68° WSW 04:13:24 10° NNW
BREEZE-M DEB (TANK) 1.5 04:07:52 56° WSW 04:08:20 80° SSE 04:12:13 10° E
Cosmos 1624 Rocket 4.0 04:06:30 21° SW 04:10:05 70° WNW 04:15:26 10° NNE
Cosmos 1536 2.9 04:10:01 10° NNW 04:13:58 53° W 04:17:55 10° S
Cosmos 1441 Rocket 3.0 04:12:34 19° SSW 04:15:07 72° WNW 04:18:53 10° N
Envisat 3.3 04:10:50 10° NNE 04:15:56 69° ESE 04:20:59 10° S
Meteor 1-4 Rocket 2.7 04:13:37 10° NNW 04:17:08 48° W 04:20:39 10° S
CZ-2C R/B 4.2 04:20:34 10° NNE 04:24:07 40° E 04:27:43 10° S
Cosmos 1371 Rocket 4.2 04:20:33 19° SW 04:24:10 52° WNW 04:29:18 10° NNE
Cosmos 1346 Rocket 3.2 04:22:51 22° SW 04:24:58 42° WNW 04:28:46 10° N
Cosmos 2322 Rocket 3.7 04:23:15 10° NNW 04:28:33 37° NE 04:33:47 10° ESE
COSMO-SKYMED 1 3.7 04:26:17 10° SE 04:30:27 48° ENE 04:34:40 10° N
H-2A R/B 3.0 04:30:26 10° NNE 04:34:05 67° ESE 04:37:43 10° S
Cosmos 1459 Rocket 4.0 04:29:17 10° SSW 04:35:38 73° W 04:42:03 10° N
SL-08 R/B 3.4 04:31:13 10° S 04:35:44 50° W 04:40:22 10° NNW
USA 305 2.9 04:33:26 21° W 04:36:06 66° NNW 04:40:13 10° ENE
Tsikada Rocket 4.4 04:30:46 10° N 04:37:07 71° ENE 04:43:21 10° SSE
Cosmos 1980 Rocket 2.4 04:32:37 10° NW 04:37:59 48° WSW 04:43:19 10° S
CENTAUR R/B 3.1 04:33:19 10° SSW 04:39:00 58° ESE 04:45:55 10° NE
Cosmos 1869 Rocket 4.0 04:35:15 10° N 04:39:42 67° ENE 04:44:05 10° SSE
Meteor 2-9 Rocket 4.2 04:34:52 10° NNW 04:40:39 73° W 04:46:15 10° S
Meteor 1-29 2.7 04:37:33 10° N 04:40:51 72° WNW 04:44:07 10° SSW
X-37B 1.4 04:42:04 19° WSW 04:43:37 33° S 04:46:16 10° ESE
Cosmos 1802 Rocket 4.0 04:37:19 10° SSW 04:43:42 79° W 04:50:04 10° N
CZ-2C R/B 3.3 04:37:58 10° NNE 04:43:49 89° WNW 04:49:25 10° SSW
Cosmos 2369 4.1 04:39:12 10° NW 04:44:30 40° WSW 04:49:43 10° S
Meteor 1-27 Rocket 4.0 04:39:23 10° SSW 04:45:01 52° WNW 04:50:48 10° N
Cosmos 1242 Rocket 4.3 04:41:59 10° N 04:45:12 35° ENE 04:48:22 10° SE
Cosmos 1850 Rocket 4.0 04:41:06 10° NNW 04:46:25 72° WSW 04:51:44 10° SSE
COSMOS 2455 4.3 04:41:03 10° NNW 04:46:40 39° NE 04:52:16 10° ESE
YAOGAN 6 3.0 04:46:02 10° N 04:49:31 42° WNW 04:52:56 10° SW
Cosmos 1633 Rocket 4.4 04:48:02 10° NW 04:51:06 19° W 04:54:10 10° SW
Cosmos 2278 3.7 04:46:33 10° NNW 04:52:10 66° WSW 04:57:45 10° SSE
DMSP B5D2-2 4.2 04:47:18 10° SSE 04:52:34 82° ENE 04:57:52 10° NNW
ATLAS CENTAUR R/B 2.0 04:48:27 12° WSW 04:52:57 55° NW 04:57:43 10° NE
Cosmos 1725 Rocket 4.0 04:47:15 10° S 04:53:35 85° W 04:59:58 10° N
Cosmos 2056 Rocket 4.2 04:50:11 11° WSW 04:54:30 33° NW 04:59:08 10° N
CZ-4C R/B 3.7 04:51:43 10° S 04:55:47 50° W 05:00:01 10° NNW
SL-16 R/B 2.5 04:50:05 10° NNW 04:55:47 72° ENE 05:01:27 10° SE
NOSS 3-2 (A) 3.5 04:53:47 10° SSW 04:59:15 76° SE 05:05:43 10° NE
Okean 1 3.5 04:56:09 10° SSW 05:00:05 51° WNW 05:04:03 10° N
BREEZE-M DEB (TANK) 3.7 04:59:06 12° W 05:01:38 33° SSW 05:08:21 10° SE
NOAA 11 4.2 04:56:07 10° NNE 05:01:39 88° WNW 05:07:07 10° SSW
Cosmos 1933 Rocket 4.1 04:58:24 10° NNW 05:02:31 38° W 05:06:36 10° SSW
Cosmos 44 Rocket 3.3 04:58:25 10° SW 05:03:07 65° NW 05:07:49 10° NE
Cosmos 1461 3.3 05:00:49 10° SSW 05:04:46 63° SE 05:08:55 10° NE
Cosmos 2173 Rocket 4.3 05:00:47 10° SW 05:06:34 43° WNW 05:12:22 10° N
Cosmos 1484 Rocket 3.9 05:04:22 10° N 05:07:43 26° WNW 05:11:03 10° WSW
GP-B 3.5 05:04:44 10° SSW 05:08:53 39° W 05:13:05 10° NNW
ATLAS 5 CENTAUR R/B 4.0 05:06:17 10° NNW 05:09:50 20° NNE 05:13:52 10° ENE
Spot 4 Rocket 4.2 05:06:24 10° N 05:11:23 51° WNW 05:16:20 10° SW
SJ-6F 4.4 05:07:25 10° N 05:11:34 70° WNW 05:15:41 10° SSW
USA 307 3.2 05:08:27 10° W 05:12:33 55° NNW 05:16:39 10° ENE
CZ-2C R/B 4.0 05:09:26 10° NNW 05:12:40 17° NW 05:15:51 10° W
USA 238 DEB 4.5 05:06:34 10° SSW 05:12:44 53° ESE 05:19:20 10° NE
PSLV R/B 3.6 05:08:53 10° N 05:13:11 60° WNW 05:17:24 10° SSW
Cosmos 1741 Rocket 4.3 05:09:55 10° NW 05:14:53 44° WSW 05:19:48 10° S
Orbus 7S? 4.3 05:12:51 10° W 05:16:19 54° NNW 05:23:43 10° ENE
Meteor 1-31 Rocket 4.1 05:12:50 10° NNE 05:16:30 44° E 05:20:10 10° S
Cosmos 1733 4.0 05:12:56 10° N 05:16:38 56° ENE 05:20:17 10° SSE
OPS 6432 4.1 05:14:43 10° NW 05:17:41 87° SW 05:20:57 10° SE
SKYMED 2 3.6 05:14:14 10° S 05:18:31 58° W 05:22:49 10° NNW
Cosmos 1833 Rocket 3.9 05:15:20 10° W 05:19:52 24° NW 05:24:26 10° NNE
CZ-4B R/B 3.6 05:14:38 10° NNE 05:19:53 86° WNW 05:25:10 10° SSW
Cosmos 2333 Rocket 3.6 05:16:40 10° NNW 05:22:05 41° NE 05:27:25 10° ESE
CZ-3 R/B 4.2 05:15:52 10° WSW 05:27:53 21° SSW 05:33:33 10° SSE
BREEZE M DEB (TANK) 3.9 05:18:04 10° W 05:33:36 84° SSW 05:37:35 10° ESE
